Search your local weather  

 
Advertise Here

Hazardous Weather Conditions

No active alerts for SAN ANTONIO, TEXAS

Current Conditions: SAN ANTONIO, TEXAS

Partly Cloudy


74.0 F

Last Updated on Nov 27 2020, 12:55 pm CST
Humidity: 74%
Wind Speed: E 5.8 mph
Barometer 29.99 in
Dewpoint: 64.9 F
Visibility: 7.00 mi
Precip: --
Heat Index: NA
Wind Chill: NA
Current conditions at:

Castroville Municipal Airport, TX (KCVB)

Lat: 29.34192 Lon: -98.8509

Local Radar Image active severe weather and emergency alerts image image weather storm and storm spotter reports image weather observation monitoring service image
Local
Radar
Active
Alerts
Storm Reports Weather
Monitoring

Sign-up For Email & Text Message Weather Alert Notification Services


Advertise Here

Observation History for SAN ANTONIO, TEXAS


Time Wind
(mph)
Vis
(mi)
Weather Precip (in) Temperature (F) Relative
Humidity
Wind
Chill
(F)
Heat
Index
(F)
Pressure
Air Dwpt altimeter
(in)
sea level
(mb)
12:55 pm CST E 5.8 7.00 Partly Cloudy -- 74.0 64.9 74% NA NA 29.99 M
11:55 am CST N 6.9 10.00 Light Rain -- 73.0 68.2 86% NA NA 30.04 M
11:35 am CST N 9.2 7.00 Rain 00.04 73.0 69.8 91% NA NA 30.05 M
10:55 am CST N 8.1 2.50 Light Rain 00.01 74.0 73.4 98% NA NA 30.04 M
9:55 am CST N 0.0 4.00 Fog/Mist -- 75.0 73.2 95% NA NA 30.03 M
8:55 am CST N 0.0 5.00 Light Rain -- 74.0 72.7 96% NA NA 30.04 M
7:55 am CST SE 5.8 5.00 Light Drizzle -- 73.0 71.6 97% NA NA 29.99 M
6:55 am CST S 8.1 4.00 Fog/Mist -- 72.0 71.2 97% NA NA 29.98 M
5:55 am CST SE 6.9 7.00 Rain 00.01 71.0 68.4 92% NA NA 29.98 M
4:55 am CST N 0.0 7.00 Overcast -- 71.0 61.2 71% NA NA 29.97 M
3:55 am CST E 4.6 7.00 Overcast -- 71.0 61.5 71% NA NA 29.96 M
2:55 am CST N 0.0 7.00 Overcast -- 73.0 63.0 72% NA NA 29.95 M
2:35 am CST E 4.6 7.00 Overcast -- 73.0 62.8 72% NA NA 29.94 M
10:35 pm CST N 0.0 7.00 Partly Cloudy -- 66.0 57.9 76% NA NA 29.98 M
10:15 pm CST N 0.0 7.00 Partly Cloudy -- 66.0 56.7 72% NA NA 29.98 M
9:35 pm CST W 4.6 7.00 Fair -- 65.0 58.6 79% NA NA 29.99 M
8:55 pm CST NW 3.5 7.00 Fair -- 66.0 58.1 76% NA NA 29.96 M
7:55 pm CST N 0.0 7.00 Fair -- 70.0 58.1 67% NA NA 29.95 M
6:55 pm CST N 0.0 7.00 Fair -- 70.0 57.9 66% NA NA 29.96 M
5:55 pm CST N 0.0 7.00 Fair -- 73.0 60.8 66% NA NA 29.95 M
1:15 pm CST S 4.6 10.00 Overcast -- 75.0 58.8 57% NA NA 29.98 M

Regional Weather Observation

San Antonio, San Antonio International Airport, TX (KSAT)

Light Rain
70.0 F

San Antonio - Kelly Field, TX (KSKF)

Mostly Cloudy
70.0 F

San Antonio, Stinson Municipal Airport, TX (KSSF)

Mostly Cloudy
70.0 F

Randolph Air Force Base, TX (KRND)

Light Rain
69.0 F

New Braunfels Regional Airport, TX (KBAZ)

Light Rain
73.0 F

Kerrville, Kerrville Municipal Airport/Louis Schreiner Field, TX (KERV)

Overcast
72.0 F
Advertise Here

Advertise Here